Location: Gwatt
(46.7204°N, 7.6223°E)
Time: 00:25:05
(UTC+00:00)

Vanguard 3 - Pass Details

Date: 26 January 2021
Orbit: 508 x 3262 km, 33.4° (Epoch: 03 March)

Event Time Altitude Azimuth Distance (km) Brightness Sun altitude
Exits shadow 06:04:31 - 255° (WSW) 3,785 10.0 -9.7°
Reaches altitude 10° 06:05:49 10° 250° (WSW) 3,479 9.9 -9.5°
Maximum altitude 06:14:04 35° 189° (S) 2,843 10.0 -8.2°
Drops below altitude 10° 06:27:09 10° 131° (SE) 5,522 12.8 -6.1°
Sets 06:32:42 0° 125° (SE) 6,865 13.9 -5.2°
